Аэропорт
Бухта Провидения (UHMD)

 UHMD / PVS
ЗЦ Хабаровск
Магадан (UHMM)
Магадан (UHMM)
 64.37810, -173.24300  / 72 ft

 TAF UHMD 302241Z 3100/3106 16011G16MPS 1000 SN BLSN VV003 TEMPO 3100/3106 21015G20MPS 0500 SHSN BLSN BKN006 BKN012CB
uhmd_aip_1605
показать схемы
Название сценария Тип сценария Flight Simulator 9 Flight Simulator X Prepar3D v2 Prepar3D v3 Prepar3D v4 xPlane
uhmd-scenery-fsx_p3d-1411 бесплатный


2020 © VATRUS division (Privacy Policy)